Flag for Argentina Weather past 2 weeks in Tucumán, Tucumán, Argentina

Now
75 °F

Scattered clouds.


Feels Like: 75 °F
Forecast: 73 / 91 °F
Wind: 7 mph from South

Location: Tucuman Aerodrome

Current Time: Jan 28, 2015 at 9:46:18 AM

Latest Report: Jan 28, 2015 at 9:00 AM


Visibility: N/A

Pressure: 29.80 "Hg

Humidity: 83%

Dew point: 70 °F

Location of TucumánLocation

Historic Weather in Tucumán — Graph

°F

Tucumán temperature yesterday

Maximum temperature yesterday: 90 °F (at 3:00 PM)
Minimum temperature yesterday: 68 °F (at 6:00 AM)
Average temperature yesterday: 81 °F

Past Weeks' High & Low Weather Summary

 TemperatureHumidityPressure
High100 °F (Jan 26, 4:00 PM)100% (Jan 17, 12:00 PM)30.21 "Hg (Jan 17, 12:00 PM)
Low66 °F (Jan 18, 5:00 AM)37% (Jan 26, 4:00 PM)29.62 "Hg (Jan 26, 5:00 PM)
Average79 °F75%29.90 "Hg
* Reported Jan 13 8:00 AM — Jan 28 8:00 AM, Tucumán, Weather by CustomWeather, © 2014

Note: Actual official high and low records may vary slightly from our data, if they occured in-between our weather recording intervals... More about our weather records

Advertising

Tucumán weather history for previous 24 hours

 ConditionsComfort  
Time TempWeatherWind HumidityBarometerVisibility
8:00 AM
Jan 28
73 °FScattered clouds.7 mph89%29.77 "HgN/A
7:00 AM70 °FSunny.5 mph88%29.71 "Hg10 mi
6:00 AM72 °FSunny.6 mph83%29.68 "Hg10 mi
5:00 AM72 °FClear.5 mph88%29.68 "Hg10 mi
4:00 AM73 °FClear.6 mph83%29.68 "Hg10 mi
3:00 AM75 °FClear.6 mph78%29.71 "Hg10 mi
2:00 AM75 °FClear.5 mph78%29.71 "Hg10 mi
1:00 AM79 °FClear.9 mph70%29.74 "Hg10 mi
12:00 AM77 °FClear.7 mph79%29.74 "Hg10 mi
11:00 PM
Jan 27
77 °FClear.9 mph94%29.74 "Hg10 mi
10:00 PM81 °FPassing clouds.6 mph70%29.71 "HgN/A
9:00 PM82 °FPassing clouds.5 mph70%29.68 "HgN/A
8:00 PM86 °FPassing clouds.5 mph66%29.68 "HgN/A
7:00 PM90 °FPassing clouds.6 mph55%29.68 "HgN/A
6:00 PM90 °FPassing clouds.10 mph52%29.68 "HgN/A
5:00 PM88 °FPassing clouds.12 mph59%29.68 "HgN/A
4:00 PM90 °FPassing clouds.10 mph52%29.71 "HgN/A
3:00 PM90 °FPassing clouds.10 mph52%29.74 "HgN/A
2:00 PM88 °FPassing clouds.8 mph52%29.77 "HgN/A
1:00 PM88 °FSunny.10 mph52%29.80 "Hg10 mi
12:00 PM84 °FSunny.10 mph55%29.80 "Hg10 mi
11:00 AM82 °FSunny.14 mph62%29.80 "Hg10 mi
10:00 AM75 °FSunny.12 mph74%29.83 "Hg10 mi
9:00 AM72 °FBroken clouds.15 mph88%29.80 "HgN/A
Weather by CustomWeather, © 2014

See weather overviewHow to use our weather pages